Location: *
(45.9500°N, 9.0833°E)
Time: 20:39:04
(UTC+00:00)

Cosmos 2333 Rocket - Pass Details

Date: 03 March 2021
Orbit: 837 x 864 km, 70.8° (Epoch: 20 April)

Event Time Altitude Azimuth Distance (km) Brightness Sun altitude
Rises 20:31:08 0° 234° (SW) 3,394 5.6 -34.1°
Reaches altitude 10° 20:33:48 10° 244° (WSW) 2,467 4.9 -34.5°
Maximum altitude 20:38:53 33° 308° (NW) 1,395 3.7 -35.2°
Drops below altitude 10° 20:44:02 10° 12° (NNE) 2,496 4.8 -36.0°
Sets 20:46:46 0° 22° (NNE) 3,440 5.5 -36.4°
